[[{"header":{"parameterUnit":"m.s-1","parameterCategory":1,"la1":30.2992,"la2":30.254,"lo1":-89.0895,"lo2":-89.0443,"dy":0.0025,"dx":0.0025,"nx":19,"ny":19,"refTime":"2026-04-29T09:00:00:Z","depth":0,"parameterNumber":2,"parameterNumberName":"U-component_of_WINDS"},"data":[0,0,0,-0.0405,-0.0401,-0.0171,-0.017,0.0092,0.0094,0,0,0,0,0,0,0,0,0,0,0,-0.0493,-0.0492,-0.0405,-0.04,-0.0171,-0.017,0.0092,0.0094,0,0,0,0,0,0,0,0,0,0,0,-0.0493,-0.0492,-0.0491,-0.0399,-0.0172,-0.017,0.0091,-0.007,0,0,0,0,0,0,0,0,0,0,-0.0288,-0.0389,-0.0492,-0.0491,-0.0398,-0.0172,-0.017,-0.0078,-0.006,-0.0026,0,-0.0001,0,0.005,0.0109,0.011,0,0,0,-0.0385,-0.0403,-0.0324,-0.0491,-0.0396,-0.0172,-0.027,-0.0068,-0.0048,-0.0003,0.0003,0.0014,0.0055,0.0111,0.0112,0.0258,0.0258,0,0,-0.0397,-0.0462,-0.0337,-0.0312,-0.0351,-0.0278,-0.0263,-0.0055,-0.0053,0.0004,0.002,0.0059,0.0112,0.0114,0.0258,0.0258,0,0,0,-0.0444,-0.0472,-0.0396,-0.0324,-0.028,-0.0272,-0.0255,-0.0062,-0.0032,0.0023,0.0062,0.0114,0.0117,0.0258,0.0258,0.0193,0,0,0,-0.0451,-0.0499,-0.0403,-0.044,-0.0285,-0.0169,-0.0267,-0.0047,-0.0021,0.0061,0.0114,0.0119,0.0258,0.0258,0.0195,0.0173,0,0,0,-0.0501,-0.0504,-0.0478,-0.0444,-0.0348,-0.017,-0.0128,-0.0039,0.0002,0.011,0.0119,0.0259,0.0258,0.0197,0.0176,0.0193,0,0,0,-0.0573,-0.0539,-0.0481,-0.0428,-0.035,-0.0213,-0.0128,-0.0023,0.0062,0.0115,0.0258,0.0258,0.0197,0.0178,0.0194,0.0195,0.0189,0,0,-0.0566,-0.0541,-0.0505,-0.0445,-0.0336,-0.0243,-0.0141,-0.0001,0.0069,0.0191,0.0196,0.0194,0.0177,0.0193,0.0177,0.0172,0,0,0,-0.0524,-0.0499,-0.0456,-0.0379,-0.0272,-0.0182,-0.0051,0.0001,0.0108,0.0118,0.0206,0.0198,0.021,0.0214,0.0209,0.0225,0.0257,0.0257,0.0257,-0.0608,-0.0521,-0.0455,-0.0341,-0.0267,-0.0132,-0.0064,0.003,0.0097,0.0116,0.0153,0.0133,0.0134,0.0131,0.0146,0.016,0.016,0.016,0.0159,-0.0591,-0.0541,-0.0454,-0.0359,-0.0267,-0.0185,-0.0054,-0.001,0.008,0.0112,0.0127,0.0155,0.0123,0.014,0.0155,0.0156,0.0157,0.0157,0.0157,-0.0635,-0.0596,-0.0535,-0.0414,-0.033,-0.0215,-0.0133,-0.0051,0.0026,0.0041,0.0089,0.0091,0.0103,0.0058,0.0058,0.0058,0.0058,0.0058,0.0058,-0.0706,-0.0634,-0.0576,-0.046,-0.0399,-0.0309,-0.0174,-0.0112,-0.0022,0.0031,0.0032,0.0097,0.0103,0.0103,0.0057,0.0057,0.0057,0.0057,0.0057,-0.072,-0.0704,-0.0614,-0.0554,-0.041,-0.0333,-0.023,-0.011,-0.0047,-0.0009,0.0053,0.0044,0.0077,0.0081,0.0082,0.0033,0.0033,0.0033,0.0033,-0.0758,-0.0734,-0.0623,-0.0531,-0.0432,-0.0331,-0.0231,-0.0125,-0.0013,0.0032,0.005,0.0058,0.0058,0.0091,0.0095,0.0097,0.0054,0.0054,0.0054,-0.0761,-0.0723,-0.0654,-0.0546,-0.0428,-0.0328,-0.0231,-0.0129,0.0002,0.0057,0.0069,0.0068,0.0081,0.0081,0.0136,0.0141,0.0146,0,0]},{"header":{"parameterUnit":"m.s-1","parameterCategory":1,"la1":30.2992,"la2":30.254,"lo1":-89.0895,"lo2":-89.0443,"dy":0.0025,"dx":0.0025,"nx":19,"ny":19,"refTime":"2026-04-29T09:00:00:Z","depth":0,"parameterNumber":3,"parameterNumberName":"V-component_of_WINDS"},"data":[0,0,0,5.6116,5.6117,5.6178,5.6178,5.6261,5.6262,0,0,0,0,0,0,0,0,0,0,0,5.6103,5.6104,5.6115,5.6117,5.6178,5.6178,5.6261,5.6262,0,0,0,0,0,0,0,0,0,0,0,5.6103,5.6103,5.6104,5.6117,5.6178,5.6178,5.6261,5.6212,0,0,0,0,0,0,0,0,0,0,5.6152,5.6146,5.6103,5.6104,5.6118,5.6178,5.6178,5.621,5.6215,5.6236,0,5.6258,0,5.6262,5.6268,5.6268,0,0,0,5.6112,5.6142,5.6154,5.6105,5.6118,5.6178,5.6149,5.6213,5.6219,5.6244,5.626,5.6262,5.6263,5.6268,5.6269,5.6413,5.6414,0,0,5.6109,5.6116,5.6149,5.6158,5.6152,5.6147,5.6151,5.6216,5.6233,5.626,5.6264,5.6264,5.6269,5.627,5.6412,5.6413,0,0,0,5.6103,5.6114,5.6124,5.6155,5.6166,5.6149,5.6153,5.623,5.6233,5.6265,5.6265,5.6269,5.6271,5.6411,5.6412,5.6466,0,0,0,5.61,5.611,5.6123,5.6127,5.6165,5.6199,5.6166,5.6229,5.6236,5.6265,5.627,5.6272,5.641,5.6412,5.6462,5.649,0,0,0,5.6097,5.6109,5.6121,5.6128,5.6155,5.6198,5.6204,5.623,5.6236,5.6268,5.6272,5.6409,5.6411,5.6459,5.6484,5.6531,0,0,0,5.6095,5.6164,5.6121,5.6199,5.6154,5.6231,5.6204,5.626,5.6293,5.627,5.641,5.6412,5.6458,5.6481,5.6528,5.6574,5.6593,0,0,5.6187,5.6176,5.6221,5.6185,5.6272,5.6221,5.6315,5.6337,5.6332,5.6386,5.6389,5.6463,5.6484,5.6531,5.6696,5.6712,0,0,0,5.6253,5.6286,5.6307,5.6341,5.6362,5.6382,5.639,5.6398,5.6444,5.6362,5.6492,5.6504,5.6531,5.6552,5.6566,5.6589,5.6422,5.6422,5.6422,5.6392,5.6385,5.646,5.6461,5.6494,5.6503,5.6528,5.6541,5.6521,5.6552,5.6568,5.667,5.6695,5.6705,5.673,5.659,5.659,5.6591,5.6591,5.6528,5.6574,5.6549,5.6614,5.6605,5.6657,5.6668,5.6653,5.67,5.6656,5.668,5.6634,5.6722,5.6743,5.6595,5.6594,5.6593,5.6593,5.6593,5.662,5.6641,5.6652,5.6702,5.6741,5.6737,5.6785,5.6774,5.6763,5.6787,5.6804,5.6803,5.6802,5.6795,5.6796,5.6796,5.6796,5.6797,5.6797,5.6711,5.6722,5.6766,5.6796,5.6817,5.6844,5.6854,5.6874,5.6893,5.6881,5.6881,5.6859,5.6732,5.6702,5.6802,5.6801,5.6801,5.68,5.68,5.6854,5.6821,5.6888,5.691,5.6944,5.6985,5.697,5.7012,5.7027,5.7051,5.7024,5.6932,5.6919,5.6909,5.6883,5.7025,5.7025,5.7025,5.7025,5.6933,5.6926,5.6993,5.703,5.7063,5.7058,5.7133,5.7142,5.7144,5.7153,5.713,5.7095,5.7085,5.7078,5.7064,5.704,5.7219,5.7219,5.7219,5.7021,5.7017,5.7085,5.709,5.7117,5.714,5.721,5.7251,5.7247,5.7227,5.716,5.7151,5.7095,5.7076,5.7056,5.7034,5.699,0,0]}]]